Change the Weather History Date:

Friday, November 30, 2012

  Actual Average (KACT) Record (KACT)
Temperature  
Mean Temperature 63 °F 52 °F  
Max Temperature 73 °F 63 °F 83 °F (1950)
Min Temperature 53 °F 41 °F 18 °F (1979)
Degree Days  
Heating Degree Days 2 14  
Month to date heating degree days 262  
Since 1 July heating degree days 328  
Cooling Degree Days 0 0  
Month to date cooling degree days 36  
Year to date cooling degree days 2792  
Growing Degree Days 13 (Base 50)    
Moisture  
Dew Point 58 °F    
Average Humidity 86    
Maximum Humidity 100    
Minimum Humidity 61    
Precipitation  
Precipitation 0.00 in 0.09 in 1.52 in (1909)
Month to date precipitation 2.82  
Year to date precipitation 31.94  
Snow  
Snow 0.00 in 0.00 in T in (2006)
Month to date snowfall 0.1  
Since 1 July snowfall 0.1  
Since 1 September snowfall 0.1  
Snow Depth -    
Sea Level Pressure  
Sea Level Pressure 30.14 in    
Wind  
Wind Speed 9 mph (SSE)    
Max Wind Speed 15 mph    
Max Gust Speed 21 mph    
Visibility 5 miles    
Events Fog    
T = Trace of Precipitation, MM = Missing Value Source: NWS Daily Summary

Daily Weather History Graph

Daily Weather History Graph

Search for Another Location

Airport or City:

Trip Planner

Search our weather history database for the weather conditions in past years. The results will help you decide how hot, cold, wet, or windy it might be!

Date:

Astronomy

Nov. 30, 2012 Rise Set
Actual Time 7:07 AM CST 5:20 PM CST
Civil Twilight 6:41 AM CST 5:47 PM CST
Nautical Twilight 6:11 AM CST 6:17 PM CST
Astronomical Twilight 5:41 AM CST 6:47 PM CST
Moon 7:15 PM CST (11/30) 8:41 AM CST (11/30)
Length of Visible Light 11h 06m
Length of Day
10h 13m
Waning Gibbous, 96% of the Moon is Illuminated
Nov 30
Waning Gibbous
Dec 6
Last Quarter
Dec 13
New
Dec 19
First Quarter
Dec 28
Full

Hourly Weather History & Observations

Time (CST) Temp. Dew Point Humidity Pressure Visibility Wind Dir Wind Speed Gust Speed Precip Events Conditions
12:53 AM 57.0 °F 51.1 °F 81% 30.16 in 8.0 mi South 8.1 mph - N/A   Clear
1:53 AM 54.0 °F 51.1 °F 90% 30.15 in 6.0 mi SSE 6.9 mph - N/A   Partly Cloudy
2:53 AM 54.0 °F 51.1 °F 90% 30.14 in 5.0 mi SSE 6.9 mph - N/A   Mostly Cloudy
3:53 AM 54.0 °F 52.0 °F 93% 30.14 in 5.0 mi South 4.6 mph - N/A   Mostly Cloudy
4:53 AM 54.0 °F 52.0 °F 93% 30.14 in 4.0 mi SSE 6.9 mph - N/A   Mostly Cloudy
5:04 AM 53.6 °F 51.8 °F 94% 30.15 in 4.0 mi South 5.8 mph - N/A   Mostly Cloudy
5:53 AM 55.9 °F 53.1 °F 90% 30.15 in 4.0 mi SSE 5.8 mph - N/A   Overcast
6:53 AM 57.9 °F 55.9 °F 93% 30.16 in 3.0 mi South 10.4 mph - N/A   Overcast
7:01 AM 57.2 °F 55.4 °F 94% 30.16 in 2.5 mi South 9.2 mph - N/A   Overcast
7:11 AM 57.2 °F 55.4 °F 94% 30.16 in 3.0 mi South 9.2 mph - N/A   Overcast
7:20 AM 57.2 °F 55.4 °F 94% 30.16 in 2.5 mi South 10.4 mph - N/A   Overcast
7:33 AM 57.2 °F 57.2 °F 100% 30.17 in 1.8 mi South 11.5 mph - N/A   Overcast
7:53 AM 57.9 °F 57.0 °F 97% 30.17 in 1.0 mi South 9.2 mph - N/A   Overcast
8:07 AM 57.2 °F 57.2 °F 100% 30.18 in 0.8 mi South 9.2 mph - N/A   Overcast
8:53 AM 59.0 °F 57.9 °F 96% 30.18 in 0.5 mi SSE 8.1 mph - N/A Fog Fog
9:26 AM 60.8 °F 57.2 °F 88% 30.19 in 1.0 mi SSE 8.1 mph - N/A   Overcast
9:53 AM 61.0 °F 59.0 °F 93% 30.19 in 1.8 mi South 8.1 mph - N/A   Overcast
10:23 AM 62.6 °F 59.0 °F 88% 30.20 in 2.5 mi South 9.2 mph - N/A   Overcast
10:36 AM 62.6 °F 59.0 °F 88% 30.20 in 3.0 mi South 8.1 mph - N/A   Overcast
10:50 AM 62.6 °F 59.0 °F 88% 30.19 in 2.5 mi South 8.1 mph - N/A   Overcast
10:53 AM 63.0 °F 59.0 °F 87% 30.19 in 2.5 mi SSE 9.2 mph - N/A   Overcast
11:12 AM 64.4 °F 60.8 °F 88% 30.18 in 3.0 mi South 9.2 mph - N/A   Overcast
11:53 AM 66.0 °F 60.1 °F 81% 30.16 in 5.0 mi SSE 9.2 mph - N/A   Haze
12:29 PM 66.2 °F 60.8 °F 83% 30.14 in 5.0 mi SSW 12.7 mph - N/A   Haze
12:53 PM 70.0 °F 60.1 °F 71% 30.12 in 6.0 mi South 15.0 mph 20.7 mph N/A   Haze
1:53 PM 72.0 °F 59.0 °F 64% 30.09 in 7.0 mi South 12.7 mph - N/A   Overcast
2:53 PM 73.9 °F 60.1 °F 62% 30.06 in 8.0 mi South 15.0 mph 19.6 mph N/A   Scattered Clouds
3:53 PM 73.0 °F 59.0 °F 61% 30.05 in 9.0 mi SSE 12.7 mph - N/A   Mostly Cloudy
4:53 PM 72.0 °F 59.0 °F 64% 30.06 in 9.0 mi SSE 9.2 mph - N/A   Clear
5:53 PM 66.9 °F 57.9 °F 73% 30.07 in 9.0 mi SSE 5.8 mph - N/A   Clear
6:53 PM 64.9 °F 59.0 °F 81% 30.07 in 9.0 mi SE 6.9 mph - N/A   Clear
7:53 PM 66.0 °F 60.1 °F 81% 30.07 in 10.0 mi SE 9.2 mph - N/A   Clear
8:53 PM 66.0 °F 60.1 °F 81% 30.07 in 10.0 mi SE 11.5 mph - N/A   Clear
10:30 PM 64.4 °F 60.8 °F 88% 30.09 in 10.0 mi SSE 12.7 mph - N/A   Mostly Cloudy
10:45 PM 64.4 °F 60.8 °F 88% 30.09 in 9.0 mi SSE 13.8 mph - N/A   Scattered Clouds
10:53 PM 64.9 °F 62.1 °F 90% 30.09 in 9.0 mi SSE 13.8 mph - N/A   Mostly Cloudy
11:53 PM 66.9 °F 63.0 °F 87% 30.09 in 9.0 mi South 15.0 mph - N/A   Overcast